[[{"header":{"parameterUnit":"m.s-1","parameterCategory":1,"la1":30.2991,"la2":30.254,"lo1":-89.0895,"lo2":-89.0444,"dy":0.0017,"dx":0.0017,"nx":28,"ny":28,"refTime":"2025-01-09T09:00:00:Z","depth":0,"parameterNumber":2,"parameterNumberName":"U-component_of_WINDS"},"data":[0,0,0,0,0,0,0,0,0,0,0,0,0,0,0,0,0,0,0,0,0,0,0,0,0,0,0,0,0,0,0,0,0,0,0,0,0,0,0,0,0,0,0,0,0,0,0,0,0,0,0,0,0,0,0,0,0,0,0.6851,0.6848,0,0.6572,0.6568,0.6565,0.6385,0.6384,0.6383,0.6382,0.6098,0.6092,0.6085,0,0,0,0,0,0,0,0,0,0,0,0,0,0.7233,0.7227,0.6851,0.6848,0.6844,0.6572,0.6568,0.6564,0.6385,0.6384,0.6383,0.6381,0.61,0.6092,0.6085,0,0,0,0,0,0,0,0,0,0,0,0,0,0.7022,0.7225,0.6852,0.6722,0.6708,0.6573,0.6568,0.6563,0.6386,0.6384,0.6382,0.6381,0.6103,0.6093,0.6083,0.6056,0,0,0.6054,0.6049,0,0,0,0,0,0,0,0,0.7034,0.7008,0.6745,0.6731,0.6714,0.6511,0.6598,0.6393,0.6386,0.6508,0.6382,0.638,0.6237,0.6216,0.6167,0.6043,0.6031,0.6053,0.6047,0.6043,0.604,0,0,0,0,0,0,0,0.7049,0.7019,0.674,0.6741,0.6722,0.6679,0.6647,0.6559,0.6385,0.6497,0.6484,0.6453,0.6228,0.6177,0.6159,0.6027,0.6053,0.6044,0.6038,0.6034,0.5867,0.5868,0,0,0,0,0,0,0.7084,0.7033,0.6749,0.6732,0.6873,0.6673,0.6638,0.6578,0.6386,0.6355,0.6455,0.6445,0.6195,0.6171,0.6149,0.6104,0.6043,0.6033,0.6028,0.5866,0.5867,0.5869,0,0,0,0,0,0,0.7093,0.706,0.6761,0.6878,0.6837,0.6668,0.6603,0.6574,0.6522,0.6353,0.6322,0.6434,0.6193,0.6163,0.6081,0.6092,0.6029,0.602,0.5864,0.5866,0.5868,0.6016,0,0,0,0,0,0,0.7104,0.7064,0.7052,0.6879,0.6831,0.6697,0.6604,0.6569,0.6506,0.6491,0.6326,0.6297,0.6189,0.6096,0.6071,0.6077,0.6012,0.5862,0.5865,0.5867,0.6009,0.6023,0.6035,0,0,0,0,0,0.7119,0.7105,0.7052,0.7019,0.6812,0.6698,0.667,0.6546,0.6507,0.6493,0.6385,0.6302,0.6095,0.6089,0.6059,0.6063,0.5861,0.5864,0.5867,0.6004,0.602,0.6034,0,0,0,0,0,0,0.7283,0.708,0.7019,0.6948,0.6842,0.6668,0.6646,0.6567,0.647,0.6461,0.6311,0.6275,0.6209,0.6127,0.6125,0.6027,0.5968,0.5966,0.6082,0.6097,0.6109,0.613,0.6004,0,0,0,0,0,0.7311,0.7235,0.7061,0.7016,0.6966,0.6816,0.6762,0.6675,0.6559,0.6513,0.6398,0.629,0.62,0.6144,0.6052,0.5997,0.5959,0.5985,0.5998,0.6009,0.6008,0.5974,0.5983,0.5879,0.5879,0.5879,0,0,0.7368,0.7248,0.7208,0.7046,0.6953,0.6879,0.6779,0.6704,0.6647,0.6501,0.6417,0.633,0.6198,0.6131,0.6095,0.6061,0.6029,0.6013,0.6023,0.6016,0.5978,0.5988,0.5997,0.5881,0.5881,0.5881,0,0,0.7433,0.7335,0.7286,0.7195,0.7056,0.6956,0.6946,0.6783,0.672,0.6633,0.6522,0.6453,0.6302,0.6213,0.6148,0.6182,0.6102,0.6157,0.6222,0.619,0.6199,0.6205,0.6218,0.6224,0.6157,0.6157,0.6157,0,0.7522,0.7404,0.7272,0.7203,0.7135,0.7,0.6951,0.6869,0.6708,0.6665,0.6629,0.6437,0.6339,0.6248,0.6257,0.6209,0.6192,0.6174,0.6208,0.6213,0.6217,0.6227,0.6233,0.6164,0.6164,0.6163,0.6162,0,0.752,0.744,0.7418,0.7265,0.7195,0.7137,0.6997,0.6942,0.6863,0.6768,0.6682,0.656,0.6441,0.6413,0.6335,0.6312,0.6295,0.6236,0.6174,0.6237,0.6244,0.6247,0.6175,0.6173,0.617,0.6168,0,0,0.7679,0.7455,0.7449,0.7378,0.7215,0.7151,0.7088,0.6972,0.6928,0.6822,0.6765,0.6641,0.6585,0.6512,0.6423,0.6395,0.6431,0.6338,0.6333,0.636,0.6398,0.6444,0.645,0.6377,0.6377,0.6377,0.6409,0,0.772,0.7597,0.7477,0.7398,0.7323,0.7195,0.714,0.7035,0.6945,0.6869,0.677,0.6685,0.6618,0.6573,0.654,0.6434,0.6436,0.643,0.6323,0.6321,0.6359,0.6454,0.65,0.6536,0.6411,0.6412,0.6412,0,0.775,0.765,0.7564,0.7409,0.7373,0.7325,0.7209,0.7139,0.7018,0.6954,0.6874,0.6779,0.6707,0.6655,0.6553,0.6552,0.6501,0.6443,0.6441,0.6426,0.637,0.6441,0.6545,0.655,0.6415,0.6415,0.6414,0,0.7875,0.7718,0.7646,0.759,0.7408,0.7378,0.7301,0.7178,0.7116,0.7016,0.6974,0.6867,0.6809,0.6728,0.6608,0.6581,0.652,0.6457,0.6466,0.6469,0.6458,0.646,0.6555,0.6427,0.6427,0.6427,0.6427,0,0.7933,0.7885,0.77,0.7656,0.7599,0.7463,0.741,0.7322,0.7214,0.7151,0.7035,0.6979,0.6823,0.6749,0.6655,0.6586,0.656,0.6508,0.6483,0.6517,0.6524,0.6482,0.6476,0.6428,0.6428,0.6428,0.6428,0,0.8061,0.7936,0.7849,0.7684,0.7642,0.7607,0.7466,0.7419,0.7324,0.7246,0.722,0.707,0.6977,0.6849,0.6716,0.6653,0.6596,0.6558,0.6637,0.6622,0.6638,0.6639,0.6709,0.6711,0.6584,0.6586,0.6587,0,0.8106,0.8066,0.7898,0.7847,0.7774,0.7694,0.763,0.7495,0.7434,0.7294,0.7265,0.7162,0.7073,0.693,0.6809,0.6708,0.6665,0.6697,0.6649,0.6685,0.6665,0.6669,0.6664,0.6709,0.6711,0.6712,0.6714,0,0.8198,0.8138,0.8051,0.7942,0.787,0.7778,0.7681,0.7647,0.7492,0.7429,0.7332,0.7263,0.7128,0.7028,0.691,0.6831,0.6747,0.673,0.6727,0.6761,0.6809,0.6783,0.6669,0.6729,0.6727,0.6726,0.6725,0.6725,0.8285,0.8244,0.812,0.8026,0.794,0.7852,0.78,0.7698,0.7615,0.7494,0.742,0.7327,0.7208,0.7041,0.6967,0.6892,0.6858,0.6853,0.6852,0.6853,0.6864,0.6822,0.687,0.6869,0.6869,0.6868,0.6868,0,0.8371,0.8285,0.8201,0.8069,0.7996,0.7924,0.7813,0.7757,0.7676,0.7573,0.7488,0.7377,0.728,0.7153,0.7047,0.7012,0.6971,0.6989,0.699,0.6973,0.69,0.6914,0.7024,0.7024,0.7024,0.7024,0.7024,0.7024,0.8407,0.8334,0.826,0.8143,0.8057,0.7965,0.7908,0.7827,0.7743,0.7625,0.7544,0.7462,0.7349,0.7234,0.7142,0.7107,0.7074,0.7104,0.7058,0.6992,0.6978,0.6964,0.6976,0.7098,0.7098,0.7135,0.7136,0.7136]},{"header":{"parameterUnit":"m.s-1","parameterCategory":1,"la1":30.2991,"la2":30.254,"lo1":-89.0895,"lo2":-89.0444,"dy":0.0017,"dx":0.0017,"nx":28,"ny":28,"refTime":"2025-01-09T09:00:00:Z","depth":0,"parameterNumber":3,"parameterNumberName":"V-component_of_WINDS"},"data":[0,0,0,0,0,0,0,0,0,0,0,0,0,0,0,0,0,0,0,0,0,0,0,0,0,0,0,0,0,0,0,0,0,0,0,0,0,0,0,0,0,0,0,0,0,0,0,0,0,0,0,0,0,0,0,0,0,0,9.4791,9.4795,0,9.5232,9.5237,9.5242,9.5323,9.532,9.5316,9.5313,9.5755,9.577,9.5785,0,0,0,0,0,0,0,0,0,0,0,0,0,9.401,9.4024,9.479,9.4796,9.4801,9.5231,9.5237,9.5243,9.5324,9.532,9.5315,9.5311,9.575,9.5768,9.5786,0,0,0,0,0,0,0,0,0,0,0,0,0,9.4389,9.4028,9.4789,9.4894,9.4908,9.523,9.5237,9.5245,9.5325,9.532,9.5314,9.5309,9.5745,9.5767,9.5789,9.6035,0,0,9.5858,9.5868,0,0,0,0,0,0,0,0,9.4368,9.4418,9.4873,9.4887,9.4903,9.5217,9.5124,9.5509,9.5326,9.5166,9.5313,9.5307,9.558,9.5616,9.571,9.6056,9.6075,9.586,9.5874,9.5883,9.589,0,0,0,0,0,0,0,9.4341,9.4399,9.4965,9.4879,9.4898,9.4916,9.4964,9.5197,9.5397,9.518,9.5187,9.5238,9.5587,9.5688,9.5721,9.6081,9.5859,9.5879,9.5893,9.5902,9.6653,9.6659,0,0,0,0,0,0,9.4297,9.4377,9.4951,9.4978,9.4617,9.4934,9.4988,9.5122,9.5395,9.5432,9.5242,9.524,9.5652,9.5694,9.5737,9.6046,9.5883,9.5904,9.5917,9.6647,9.6655,9.6662,0,0,0,0,0,0,9.428,9.4348,9.4933,9.468,9.4755,9.4953,9.5103,9.5133,9.5234,9.5443,9.5478,9.5309,9.5649,9.5705,9.5962,9.6062,9.5915,9.5935,9.6639,9.6649,9.6658,9.6663,0,0,0,0,0,0,9.4258,9.4341,9.4439,9.4681,9.4769,9.5153,9.5109,9.5146,9.5274,9.5276,9.5515,9.5549,9.565,9.5927,9.5984,9.6091,9.5953,9.6631,9.6644,9.6655,9.6655,9.6672,9.6686,0,0,0,0,0,9.423,9.442,9.4443,9.4512,9.4895,9.5158,9.5208,9.5323,9.5282,9.5381,9.5515,9.5541,9.6041,9.5953,9.6017,9.6132,9.6626,9.664,9.6654,9.6648,9.6668,9.6686,0,0,0,0,0,0,9.418,9.4454,9.4483,9.4758,9.4935,9.5171,9.53,9.534,9.553,9.5523,9.5654,9.5707,9.5957,9.607,9.5966,9.6386,9.633,9.6358,9.6304,9.6325,9.634,9.6308,9.5972,0,0,0,0,0,9.4202,9.4396,9.4623,9.4843,9.4931,9.51,9.5218,9.5292,9.5479,9.5553,9.5706,9.5884,9.6082,9.6209,9.6402,9.6671,9.6725,9.6782,9.6797,9.6809,9.6832,9.6985,9.7013,9.6709,9.6709,9.6708,0,0,9.4247,9.4421,9.4535,9.4838,9.4984,9.518,9.5162,9.5369,9.5516,9.5584,9.5838,9.5955,9.6162,9.6427,9.6551,9.6529,9.6928,9.6827,9.6835,9.6852,9.7002,9.7031,9.7056,9.6718,9.6717,9.6715,0,0,9.4432,9.4582,9.4785,9.4932,9.5154,9.5265,9.5313,9.5546,9.5628,9.5885,9.5941,9.6115,9.6452,9.6599,9.6717,9.6958,9.6991,9.7017,9.7099,9.7246,9.727,9.7292,9.738,9.741,9.7039,9.7039,9.7039,0,9.446,9.4761,9.4882,9.5089,9.5221,9.5295,9.55,9.5635,9.5907,9.5996,9.5967,9.6395,9.6539,9.684,9.6899,9.6992,9.7051,9.6991,9.7257,9.7281,9.7303,9.7389,9.7421,9.7041,9.704,9.704,9.704,0,9.4785,9.4993,9.5128,9.5395,9.5541,9.5745,9.5896,9.6029,9.6089,9.6203,9.6463,9.664,9.6871,9.6947,9.7006,9.7258,9.7237,9.7231,9.7179,9.7332,9.7415,9.7448,9.7043,9.7043,9.7042,9.7042,0,0,9.4951,9.5284,9.5332,9.5455,9.5706,9.5868,9.6074,9.6304,9.6417,9.6601,9.6778,9.7063,9.706,9.7194,9.727,9.7399,9.7582,9.7379,9.7385,9.7412,9.7872,9.7877,9.7913,9.7604,9.7611,9.7616,9.7856,0,9.5168,9.5545,9.566,9.5975,9.6168,9.6241,9.6422,9.6594,9.6706,9.6884,9.7005,9.7206,9.7186,9.7268,9.7399,9.7532,9.7677,9.7516,9.777,9.7778,9.7719,9.7956,9.7962,9.8179,9.7888,9.7894,9.7898,0,9.5471,9.5667,9.6001,9.6231,9.6316,9.6477,9.6698,9.6867,9.7064,9.7136,9.7287,9.7353,9.757,9.7504,9.7805,9.7694,9.7804,9.7885,9.7896,9.7926,9.7849,9.7994,9.8251,9.8284,9.795,9.7946,9.7942,0,9.5562,9.5908,9.6154,9.6256,9.6529,9.664,9.6758,9.695,9.7082,9.7273,9.736,9.7572,9.7689,9.7851,9.7973,9.7913,9.8264,9.8207,9.833,9.8327,9.8402,9.8396,9.8682,9.8469,9.8468,9.8468,9.8467,0,9.5793,9.5996,9.6199,9.6351,9.6579,9.6709,9.6931,9.7052,9.7222,9.7397,9.7471,9.7632,9.7782,9.7963,9.8058,9.8294,9.8345,9.8409,9.8433,9.8405,9.8397,9.848,9.8469,9.8476,9.8474,9.8473,9.8471,0,9.5934,9.6079,9.6352,9.6589,9.6654,9.6812,9.7014,9.7162,9.7277,9.7497,9.7556,9.7735,9.7952,9.8089,9.8364,9.8428,9.8688,9.8705,9.8623,9.8635,9.8751,9.8739,9.9103,9.9158,9.8904,9.8906,9.8908,0,9.6074,9.6232,9.6487,9.6612,9.6732,9.6931,9.7067,9.7199,9.7337,9.7574,9.7694,9.7917,9.8103,9.8446,9.8599,9.881,9.8834,9.8947,9.8866,9.8834,9.8839,9.883,9.8847,9.8961,9.8963,9.8965,9.8966,0,9.6306,9.6371,9.6566,9.6787,9.6948,9.7127,9.7305,9.7402,9.7564,9.7715,9.7941,9.8085,9.8368,9.8589,9.8814,9.8933,9.8977,9.899,9.9031,9.9005,9.8952,9.8985,9.8662,9.8982,9.898,9.8979,9.8978,9.8978,9.6453,9.6599,9.6802,9.7017,9.7166,9.7332,9.7485,9.762,9.7811,9.8055,9.812,9.8356,9.8549,9.8857,9.898,9.9165,9.915,9.9207,9.9222,9.9235,9.9239,9.892,9.9206,9.9206,9.9206,9.9205,9.9205,0,9.6692,9.6827,9.7024,9.7274,9.7443,9.7473,9.7672,9.7811,9.8019,9.8197,9.838,9.8639,9.8853,9.9024,9.9244,9.936,9.9386,9.9413,9.9407,9.9435,9.9238,9.9183,9.9389,9.9389,9.9389,9.9389,9.9389,9.9389,9.6837,9.7085,9.7174,9.7496,9.7629,9.7865,9.7976,9.8129,9.8273,9.856,9.8741,9.8851,9.9027,9.9261,9.9459,9.9503,9.9582,9.9606,9.9654,9.9468,9.9448,9.9429,9.9378,9.9621,9.9622,9.9836,9.9838,9.9839]}]]